This is the latest recevied weather packets stored in our database for station/object R1ZCU-14. If no packets are shown the sender has not sent any weather packets the latest 10 day(s).
| Time | Temp. | Humidity | Pressure | Rain* | Wind** | Luminosity | Snow |
|---|---|---|---|---|---|---|---|
| 1777756186 | 2.78° C | 58% | 989.8 hPa | - | - | - | - |
| 1777755586 | 2.78° C | 57% | 989.7 hPa | - | - | - | - |
| 1777754985 | 3.33° C | 57% | 989.7 hPa | - | - | - | - |
| 1777754385 | 3.33° C | 57% | 989.7 hPa | - | - | - | - |
| 1777753784 | 3.33° C | 60% | 989.6 hPa | - | - | - | - |
| 1777753184 | 3.89° C | 60% | 989.6 hPa | - | - | - | - |
| 1777752583 | 3.89° C | 61% | 989.6 hPa | - | - | - | - |
| 1777751983 | 3.89° C | 61% | 989.5 hPa | - | - | - | - |
| 1777751382 | 3.89° C | 66% | 989.5 hPa | - | - | - | - |
| 1777750782 | 3.89° C | 74% | 989.5 hPa | - | - | - | - |
| 1777750181 | 3.89° C | 75% | 989.4 hPa | - | - | - | - |
| 1777749581 | 3.89° C | 72% | 989.3 hPa | - | - | - | - |
| 1777748980 | 4.44° C | 68% | 989.1 hPa | - | - | - | - |
| 1777748380 | 5° C | 67% | 989.1 hPa | - | - | - | - |
| 1777747779 | 5.56° C | 64% | 988.8 hPa | - | - | - | - |
| 1777747179 | 5.56° C | 60% | 988.2 hPa | - | - | - | - |
| 1777746578 | 6.11° C | 59% | 987.9 hPa | - | - | - | - |
| 1777745978 | 6.11° C | 58% | 987.6 hPa | - | - | - | - |
| 1777745377 | 6.67° C | 56% | 987.7 hPa | - | - | - | - |
| 1777744777 | 6.67° C | 56% | 987.6 hPa | - | - | - | - |
| 1777744176 | 7.22° C | 61% | 987.5 hPa | - | - | - | - |
| 1777742976 | 6.67° C | 75% | 987.1 hPa | - | - | - | - |
| 1777742375 | 6.67° C | 79% | 987.1 hPa | - | - | - | - |
| 1777741775 | 6.11° C | 81% | 987.1 hPa | - | - | - | - |
| 1777741174 | 6.67° C | 82% | 986.9 hPa | - | - | - | - |
* Rain since midnight (hover to see other rain measurements)
** Current wind speed in m/s (hover to see current wind gust speed)